Regional Weather Roundup
Issued by NWS

Home | Current Version | Previous Version | Graphics & Text | Print | Product List | Glossary On
Versions: 1 2 3 4 5 6 7 8 9 10 11 12 13 14 15 16 17 18 19 20 21 22 23 24 25 26 27 28 29 30 31 32 33 34 35 36 37 38 39 40 41 42 43 44 45 46 47 48 49 50
000
ASUS45 KCYS 292010
RWRWY

WYOMING REGIONAL WEATHER ROUNDUP
NATIONAL WEATHER SERVICE CHEYENNE WY
200 PM MDT TUE JUL 29 2014

NOTE:  "FAIR" INDICATES FEW OR NO CLOUDS BELOW 12,000 FEET
WITH NO SIGNIFICANT WEATHER AND/OR OBSTRUCTIONS TO VISIBILITY.

WYZ001-292100-
YELLOWSTONE NATIONAL PARK

CITY           SKY/WX    TMP DP  RH WIND       PRES   REMARKS
LK YELLOWSTONE   N/A     61  46  57 CALM      30.47F
W YELLOWSTONE  NOT AVBL

$$
WYZ002>013-054>058-071-098>099-292100-
NORTHERN WYOMING

CITY           SKY/WX    TMP DP  RH WIND       PRES   REMARKS
JACKSON        CLOUDY    70  48  46 NE10      30.33S
CODY           NOT AVBL
GREYBULL       CLOUDY    71  58  63 SE18      30.26S
WORLAND        LGT RAIN  64  60  87 SE8       30.30S
SHERIDAN       CLOUDY    84  44  24 SE8       30.23F
BUFFALO        CLOUDY    69  52  54 S13       30.33S
GILLETTE       CLOUDY    68  60  75 SW12      30.29F
HULETT         FAIR      77  55  47 MISG      30.27
NEWCASTLE      LGT RAIN  64  57  77 SW5       30.29

$$
WYZ014>020-022>026-101>103-292100-
CENTRAL WYOMING

CITY           SKY/WX    TMP DP  RH WIND       PRES   REMARKS
BIG PINEY      LGT RAIN  61  52  72 W5        30.39S
PINEDALE       LGT RAIN  57  54  88 CALM      30.40S
DUBOIS         RAIN      54  52  94 CALM      30.48R
LANDER         LGT RAIN  60  56  86 CALM      30.35S
RIVERTON       LGT RAIN  60  58  92 NE8       30.35S
CASPER         LGT RAIN  69  52  54 N16       30.30S
DOUGLAS        CLOUDY    74  53  48 E13       30.26F

$$
WYZ021-027>030-104>119-292100-
SOUTHERN WYOMING

CITY           SKY/WX    TMP DP  RH WIND       PRES   REMARKS
EVANSTON       LGT RAIN  57  56  96 SE8       30.36F
KEMMERER       LGT RAIN  55  54  94 CALM      30.40
FORT BRIDGER     N/A     60  58  94 NW3       30.40R
ROCK SPRINGS   CLOUDY    67  51  56 NE17      30.34F
DIXON          MOCLDY    66  56  70 SW12G21   30.35S
RAWLINS        RAIN      59  56  89 W10       30.32F FOG
SARATOGA       CLOUDY    68  50  52 S22G28    30.32R
LARAMIE        CLOUDY    64  54  69 SE17      30.32F
CHEYENNE       LGT RAIN  64  57  78 N9        30.29S
TORRINGTON     MOSUNNY   79  58  48 SE10      30.20F
PINE BLUFFS    FAIR      73  55  53 NE12      30.24S

$$


USA.gov is the U.S. government's official web portal to all federal, state and local government web resources and services.